Weather History for Milton, FL

Change the Weather History Date:

Tuesday, November 8, 2011

  Actual Average (KNSE) Record (KNSE)
Temperature  
Mean Temperature 68 °F -  
Max Temperature 80 °F 69 °F 82 °F (2005)
Min Temperature 55 °F 50 °F 35 °F (2007)
Cooling Degree Days 2    
Growing Degree Days 18 (Base 50)    
Moisture  
Dew Point 55 °F    
Average Humidity 69    
Maximum Humidity 93    
Minimum Humidity 39    
Precipitation  
Precipitation 0.00 in - - ()
Sea Level Pressure  
Sea Level Pressure 30.07 in    
Wind  
Wind Speed 7 mph (ESE)    
Max Wind Speed 16 mph    
Max Gust Speed 23 mph    
Visibility 10 miles    
Events      
Averages and records for this station are not official NWS values.
T = Trace of Precipitation, MM = Missing Value Source: NWS Daily Summary

Daily Weather History Graph

Daily Weather History Graph

Search for Another Location

Airport:

Trip Planner

Search our weather history database for the weather conditions in past years. The results will help you decide how hot, cold, wet, or windy it might be!

Date:

Astronomy

Nov. 08, 2011 Rise Set
Actual Time 6:08 AM CST 4:54 PM CST
Civil Twilight 5:43 AM CST 5:20 PM CST
Nautical Twilight 5:14 AM CST 5:48 PM CST
Astronomical Twilight 4:45 AM CST 6:17 PM CST
Moon 3:31 PM CST (11/8) 4:11 AM CST (11/8)
Length of Visible Light 11h 36m
Length of Day
10h 46m
Waxing Gibbous, 96% of the Moon is Illuminated
Nov 8
Waxing Gibbous
Nov 10
Full
Nov 18
Last Quarter
Nov 25
New
Dec 2
First Quarter

Hourly Weather History & Observations

Time (CST) Temp. Heat Index Dew Point Humidity Pressure Visibility Wind Dir Wind Speed Gust Speed Precip Events Conditions
12:56 AM 62.1 °F - 55.9 °F 80% 30.09 in 10.0 mi East 8.1 mph - N/A   Clear
1:56 AM 60.1 °F - 55.9 °F 86% 30.08 in 10.0 mi ENE 4.6 mph - N/A   Clear
2:56 AM 55.9 °F - 53.1 °F 90% 30.08 in 10.0 mi ENE 3.5 mph - N/A   Clear
3:56 AM 59.0 °F - 55.0 °F 87% 30.09 in 10.0 mi East 6.9 mph - N/A   Clear
4:56 AM 59.0 °F - 55.0 °F 87% 30.10 in 10.0 mi NE 4.6 mph - N/A   Mostly Cloudy
5:56 AM 60.1 °F - 55.9 °F 86% 30.12 in 10.0 mi ENE 4.6 mph - N/A   Overcast
6:56 AM 61.0 °F - 57.0 °F 87% 30.12 in 10.0 mi East 5.8 mph - N/A   Partly Cloudy
7:56 AM 66.0 °F - 57.0 °F 73% 30.14 in 10.0 mi SE 6.9 mph - N/A   Clear
8:56 AM 72.0 °F - 55.0 °F 55% 30.13 in 10.0 mi ESE 16.1 mph 23.0 mph N/A   Clear
9:56 AM 75.9 °F - 55.0 °F 48% 30.13 in 10.0 mi ESE 15.0 mph - N/A   Clear
10:56 AM 78.1 °F - 55.0 °F 45% 30.11 in 10.0 mi ESE 13.8 mph 20.7 mph N/A   Clear
11:56 AM 78.1 °F - 54.0 °F 43% 30.09 in 10.0 mi SE 15.0 mph - N/A   Clear
12:56 PM 79.0 °F - 53.1 °F 40% 30.06 in 10.0 mi SSE 8.1 mph - N/A   Mostly Cloudy
1:56 PM 80.1 °F 79.9 °F 53.1 °F 39% 30.05 in 10.0 mi Variable 3.5 mph - N/A   Mostly Cloudy
2:56 PM 79.0 °F - 53.1 °F 40% 30.04 in 10.0 mi SSE 9.2 mph 17.3 mph N/A   Clear
3:56 PM 75.9 °F - 53.1 °F 45% 30.03 in 10.0 mi SSE 10.4 mph - N/A   Clear
4:56 PM 72.0 °F - 54.0 °F 53% 30.02 in 10.0 mi SSE 5.8 mph - N/A   Clear
5:56 PM 68.0 °F - 55.0 °F 63% 30.04 in 10.0 mi South 3.5 mph - N/A   Clear
6:56 PM 66.9 °F - 57.9 °F 73% 30.06 in 10.0 mi Calm Calm - N/A   Clear
7:56 PM 64.9 °F - 59.0 °F 81% 30.04 in 10.0 mi SSE 3.5 mph - N/A   Clear
8:56 PM 63.0 °F - 57.9 °F 84% 30.05 in 10.0 mi Calm Calm - N/A   Clear
9:56 PM 57.9 °F - 54.0 °F 87% 30.04 in 10.0 mi Calm Calm - N/A   Clear
10:56 PM 60.1 °F - 57.0 °F 90% 30.04 in 10.0 mi Calm Calm - N/A   Clear
11:56 PM 60.1 °F - 57.9 °F 93% 30.04 in 10.0 mi East 4.6 mph - N/A   Clear